DECAYED

NOAA 16 DEB, 42346 (Decayed)

Orbit data source: Space-Track

NOAA 16 DEB, 42346 was space debris in SSO originally from a launch on Thu, 21 Sep 2000 UTC launched from the Air Force Western Test Range (AFWTR). Debris objects in space refer to the collection of defunct objects orbiting the Earth. Examples of debris include non-operational satellites, rocket bodies, and fragments generated from explosions, collisions, or faulty payload assembly.

Not visible in the next 10 days
Identifier
42346, 2000-055QN
Orbit
Decayed
Last TLE update
8 months ago
Origin
Manufacturer
Unknown
Mission
Decayed spacecraft
Bus & Motor
Unknown
Mass
Unknown
Launch date (UTC)
2000-09-21 (25 years ago)
Launch vehicle
Unknown
Launch site
Air Force Western Test Range (AFWTR)
Object type
Payload
Rocket body
Debris
Shape & HBR
Unknown
Radar Cross Section
Small (<0.1 m²)

Expand to show TLE details & history

TLE from 8 months ago
0 NOAA 16 DEB
1 42346U 00055QN  24266.00932353  .00653240  00000-0  26432-1 0  9992
2 42346  99.0137 179.7295 0025800  85.0696 275.3479 15.21920337452875
Epoch: 2024-09-22T00:13Z
Definitive object data (Epoch: 2024-09-22T00:13:25.552Z)
Latitude
-0.00013°
Longitude
175.01468°
Altitude
501.482 km
Speed
7.615 km/s
True Right ascension
11h 58m 55s
True Declination
0° 00' 00"
Sunlit
Object was in daylight at TLE epoch
Visualization observer readout
Visualization observer readout
Orbital elements
Apogee altitude
514.826 km
Perigee altitude
479.35 km
Semi-major axis
6,875.225 km
Eccentricity
0.00258
Inclination
99.0137°
RAAN
179.7295°
Arg. of periapsis
85.0696°
True anomaly
275.05345°
Mean anomaly
275.3479°
Eccentric anomaly
275.20069°
Mean motion
3.80726 °/min
BSTAR
0.026432
Orbital period
94.56 mins
Loading maneuver chart data...
Loading SW <> Apogee altitude chart data...
Loading historical data...
Loading historical data...
Loading historical data...
Loading historical data...
Loading historical data...
Loading historical data...
Loading historical data...

NOAA 16 DEB Visibility forecast

Observer location: undefined°, undefined°

This satellite is decayed
Span
Click to sort rows by Start time (UTC) header in descending order
Start Az.
Max El. time (UTC)
Max El. Az.
Max El.
End time (UTC)
End Az.
|